Le nostre stazioni meteo in Italia

Pubblicità
Il mio iltempo24.it
Sciacca, Italia (16436): Temperatura & dewpoint: 13.04.2019 17:00:00 - 19.04.2019 17:00:00 (CEST)Sciacca, Italia (16436): velocità del vento: 13.04.2019 17:00:00 - 19.04.2019 17:00:00 (CEST)Sciacca, Italia (16436): direzione del vento: 13.04.2019 17:00:00 - 19.04.2019 17:00:00 (CEST)Sciacca, Italia (16436): reduced air pressure: 13.04.2019 17:00:00 - 19.04.2019 17:00:00 (CEST)
Data & Tempo tt [°C] td [°C] ff [km/h] ff [kn] dd ppp [hPa]
19.04.2019 17:00:00 - - - - - -
19.04.2019 16:00:00 17,5 13,5 9 5 SE 1035,0
19.04.2019 15:00:00 17,3 12,6 11 6 S 1035,3
19.04.2019 14:00:00 18,0 10,6 15 8 S 1035,5
19.04.2019 13:00:00 18,5 12,4 13 7 SSE 1036,0
19.04.2019 12:00:00 18,4 9,9 13 7 ESE 1035,8
19.04.2019 11:00:00 18,5 9,2 13 7 E 1035,7
19.04.2019 10:00:00 17,5 8,0 15 8 E 1035,3
19.04.2019 09:00:00 15,7 7,9 - - - 1035,3
19.04.2019 08:00:00 13,5 9,3 - - - 1035,0
19.04.2019 07:00:00 11,8 9,0 - - - 1034,5
19.04.2019 06:00:00 10,9 8,4 - - - 1034,4
19.04.2019 05:00:00 11,1 8,6 - - - 1034,0
19.04.2019 04:00:00 11,2 9,6 - - - 1034,0
19.04.2019 03:00:00 11,4 10,5 - - - 1034,1
19.04.2019 02:00:00 11,6 10,5 - - - 1034,3
19.04.2019 01:00:00 11,8 10,5 - - - 1034,3
19.04.2019 00:00:00 11,7 10,3 - - - 1034,0
18.04.2019 23:00:00 12,0 10,4 5 3 NNE 1033,5
18.04.2019 22:00:00 12,2 10,8 0 0 N 1032,9
18.04.2019 21:00:00 12,6 11,3 0 0 N 1032,3
18.04.2019 20:00:00 14,4 12,4 0 0 N 1031,2
18.04.2019 19:00:00 15,6 12,8 2 1 ESE 1030,8
18.04.2019 18:00:00 16,7 13,5 0 0 N 1030,6
18.04.2019 17:00:00 17,0 13,4 5 3 SE 1030,8
18.04.2019 16:00:00 17,2 14,8 9 5 SE 1031,0
18.04.2019 15:00:00 16,6 14,9 11 6 SSE 1031,2
18.04.2019 14:00:00 16,7 15,2 9 5 S 1031,6
18.04.2019 13:00:00 16,7 15,0 11 6 S 1031,5
18.04.2019 12:00:00 16,6 14,7 8 4 S 1031,7
18.04.2019 11:00:00 16,7 13,7 8 4 SSE 1031,7
18.04.2019 10:00:00 16,0 13,9 2 1 ESE 1032,0
18.04.2019 09:00:00 14,5 13,5 - - - 1032,1
18.04.2019 08:00:00 11,7 11,4 - - - 1032,0
18.04.2019 07:00:00 9,7 9,2 - - - 1031,7
18.04.2019 06:00:00 9,8 9,0 - - - 1031,5
18.04.2019 05:00:00 10,2 9,4 - - - 1031,6
18.04.2019 04:00:00 10,4 9,5 - - - 1031,5
18.04.2019 03:00:00 10,6 9,5 - - - 1031,8
18.04.2019 02:00:00 11,9 10,8 - - - 1031,8
18.04.2019 01:00:00 11,5 10,6 - - - 1031,8
18.04.2019 00:00:00 11,8 10,9 2 1 NE 1031,6
17.04.2019 23:00:00 11,8 10,7 2 1 NNE 1031,4
17.04.2019 22:00:00 12,2 10,6 5 3 NE 1031,0
17.04.2019 21:00:00 13,0 10,5 0 0 N 1030,3
17.04.2019 20:00:00 14,4 11,0 0 0 N 1029,5
17.04.2019 19:00:00 15,5 11,2 8 4 O 1029,1
17.04.2019 18:00:00 16,3 12,8 13 7 OSO 1029,0
17.04.2019 17:00:00 16,9 14,1 13 7 OSO 1029,0
17.04.2019 16:00:00 16,4 11,9 15 8 SO 1029,2
17.04.2019 15:00:00 16,3 13,9 16 9 OSO 1029,7
17.04.2019 14:00:00 16,4 13,6 13 7 OSO 1030,0
17.04.2019 13:00:00 16,6 14,7 8 4 SO 1030,3
17.04.2019 12:00:00 15,7 13,5 8 4 SO 1030,9
17.04.2019 11:00:00 15,3 13,8 5 3 SSO 1031,1
17.04.2019 10:00:00 14,6 13,3 5 3 S 1031,1
17.04.2019 09:00:00 13,1 12,6 5 3 SO 1031,1
17.04.2019 08:00:00 10,9 10,6 - - - 1031,0
17.04.2019 07:00:00 9,4 8,8 - - - 1030,9
17.04.2019 06:00:00 10,7 10,1 - - - 1030,3
17.04.2019 05:00:00 10,1 9,2 - - - 1031,3
17.04.2019 04:00:00 11,2 10,4 - - - 1031,5
17.04.2019 03:00:00 - - - - - -
17.04.2019 02:00:00 10,0 9,1 - - - 1031,8
17.04.2019 01:00:00 9,9 8,6 - - - 1031,4
17.04.2019 00:00:00 10,0 8,9 - - - 1031,6
16.04.2019 23:00:00 10,3 9,4 0 0 N 1031,7
16.04.2019 22:00:00 10,2 9,6 - - - 1031,8
16.04.2019 21:00:00 10,5 9,6 0 0 N 1031,2
16.04.2019 20:00:00 12,8 11,7 0 0 N 1030,5
16.04.2019 19:00:00 13,7 12,4 0 0 N 1030,5
16.04.2019 18:00:00 14,2 12,6 0 0 N 1029,9
16.04.2019 17:00:00 15,5 14,0 8 4 SSE 1029,3
16.04.2019 16:00:00 15,9 12,6 9 5 S 1030,1
16.04.2019 15:00:00 16,1 12,8 8 4 S 1030,5
16.04.2019 14:00:00 15,8 12,5 9 5 S 1030,9
16.04.2019 13:00:00 15,0 13,0 8 4 SSE 1031,4
16.04.2019 12:00:00 15,5 12,0 4 2 S 1031,2
16.04.2019 11:00:00 15,1 12,6 4 2 SSE 1031,4
16.04.2019 10:00:00 14,5 12,3 2 1 S 1031,3
16.04.2019 09:00:00 12,9 11,5 0 0 N 1031,1
16.04.2019 08:00:00 10,8 9,7 - - - 1031,2
16.04.2019 07:00:00 9,4 8,1 - - - 1030,2
16.04.2019 06:00:00 9,2 8,0 - - - 1029,5
16.04.2019 05:00:00 8,7 7,8 - - - 1029,9
16.04.2019 04:00:00 8,8 7,6 - - - 1030,1
16.04.2019 03:00:00 10,1 8,7 - - - 1030,0
16.04.2019 02:00:00 9,2 8,0 - - - 1030,3
16.04.2019 01:00:00 10,4 9,0 - - - 1030,2
16.04.2019 00:00:00 11,3 9,9 9 5 N 1029,9
15.04.2019 23:00:00 10,1 8,2 0 0 N 1029,8
15.04.2019 22:00:00 11,5 9,2 9 5 N 1029,1
15.04.2019 21:00:00 11,6 10,0 8 4 NNO 1028,0
15.04.2019 20:00:00 12,9 10,6 13 7 NNO 1026,7
15.04.2019 19:00:00 15,1 10,0 11 6 NO 1025,8
15.04.2019 18:00:00 14,7 8,4 9 5 N 1025,0
15.04.2019 17:00:00 14,6 10,2 13 7 N 1024,4
15.04.2019 16:00:00 14,7 10,1 15 8 N 1023,4
15.04.2019 15:00:00 15,2 11,7 15 8 NNE 1023,0
15.04.2019 14:00:00 13,2 9,8 21 11 N 1023,3
15.04.2019 13:00:00 13,9 9,9 18 10 E 1022,1
15.04.2019 12:00:00 14,0 10,8 18 10 N 1021,9
15.04.2019 11:00:00 12,6 11,0 22 12 N 1022,2
15.04.2019 10:00:00 12,7 10,7 13 7 ESE 1021,8
15.04.2019 09:00:00 11,6 10,3 4 2 NE 1022,0
15.04.2019 08:00:00 11,0 9,7 4 2 ESE 1021,9
15.04.2019 07:00:00 11,2 9,1 13 7 SO 1021,0
15.04.2019 06:00:00 11,5 9,0 8 4 SO 1020,8
15.04.2019 05:00:00 13,0 12,0 24 13 O 1020,6
15.04.2019 04:00:00 13,8 12,3 22 12 OSO 1021,0
15.04.2019 03:00:00 13,5 11,5 26 14 OSO 1021,7
15.04.2019 02:00:00 12,4 10,6 16 9 O 1023,9
15.04.2019 01:00:00 12,4 11,3 0 0 N 1024,4
15.04.2019 00:00:00 12,6 11,5 2 1 OSO 1025,0
14.04.2019 23:00:00 12,3 11,0 0 0 N 1024,6
14.04.2019 22:00:00 12,9 11,5 4 2 O 1025,2
14.04.2019 21:00:00 13,2 11,7 13 7 O 1025,0
14.04.2019 20:00:00 13,7 12,1 21 11 O 1024,5
14.04.2019 19:00:00 14,6 11,2 15 8 O 1024,1
14.04.2019 18:00:00 15,8 9,2 24 13 O 1023,9
14.04.2019 17:00:00 15,8 12,8 24 13 O 1023,6
14.04.2019 16:00:00 16,0 12,9 22 12 O 1023,9
14.04.2019 15:00:00 16,2 13,0 24 13 O 1024,2
14.04.2019 14:00:00 16,1 13,3 22 12 O 1024,4
14.04.2019 13:00:00 15,7 13,3 24 13 O 1024,6
14.04.2019 12:00:00 15,8 13,9 15 8 O 1025,1
14.04.2019 11:00:00 14,2 13,0 16 9 O 1025,6
14.04.2019 10:00:00 12,7 12,2 16 9 O 1025,7
14.04.2019 09:00:00 11,4 11,1 0 0 N 1025,5
14.04.2019 08:00:00 11,7 11,4 - - - 1025,1
14.04.2019 07:00:00 10,4 9,8 - - - 1024,9
14.04.2019 06:00:00 11,2 10,6 - - - 1024,5
14.04.2019 05:00:00 11,2 10,3 - - - 1024,7
14.04.2019 04:00:00 11,0 10,1 - - - 1025,0
14.04.2019 03:00:00 11,2 10,3 - - - 1025,3
14.04.2019 02:00:00 11,4 10,3 8 4 O 1025,6
14.04.2019 01:00:00 11,1 10,0 8 4 NO 1025,8
14.04.2019 00:00:00 11,3 10,2 11 6 NNO 1025,6
13.04.2019 23:00:00 11,3 10,2 9 5 NO 1025,3
13.04.2019 22:00:00 11,6 10,7 9 5 NNO 1025,4
13.04.2019 21:00:00 11,6 10,5 5 3 NNO 1025,1
13.04.2019 20:00:00 11,8 10,9 2 1 NO 1024,4
13.04.2019 19:00:00 12,2 11,7 5 3 O 1023,7
13.04.2019 18:00:00 12,1 11,8 0 0 N 1023,6
13.04.2019 17:00:00 12,1 11,3 5 3 SO 1023,3

tt = Temperatura
td = dewpoint
ff = velocità del vento
dd = direzione del vento
ppp = reduced air pressure

Stazioni seguenti

WeatherPro
AMSI
MeteoEarth